Regional Weather Roundup
Issued by NWS

Home | Current Version | Previous Version | Graphics & Text | Print | Product List | Glossary On
Versions: 1 2 3 4 5 6 7 8 9 10 11 12 13 14 15 16 17 18 19 20 21 22 23 24 25 26 27 28 29 30 31 32 33 34
000
ASUS45 KSLC 211210
RWRUT

UTAH REGIONAL WEATHER ROUNDUP
NATIONAL WEATHER SERVICE SALT LAKE CITY UT
600 AM MDT TUE OCT 21 2014

UTZ001>011-023>025-211300-

NORTHERN UTAH

CITY           SKY/WX    TMP DP  RH WIND       PRES   REMARKS
BRIGHAM CITY   MOCLDY    58  43  58 CALM      29.84F
HILL AFB       CLOUDY    63  43  48 S15       29.88S
LOGAN          PTCLDY    46  40  79 NW7       29.84F
OGDEN          CLOUDY    67  38  34 S22G41    29.84F
PROVO AIRPORT  CLOUDY    57  39  51 CALM      29.94S
SALT LAKE CITY CLOUDY    64  40  41 S14       29.87S
VERNAL         MOCLDY    45  37  73 NW6       30.03S
WENDOVER       PTCLDY    61  36  39 S15       29.85R
HEBER CITY     DRIZZLE   50  39  66 CALM      29.98S
WEST JORDAN    CLEAR     63  45  51 SE16G22   29.90S

$$

UTZ012>022-026-027-211300-

SOUTHERN/CENTRAL UTAH

CITY           SKY/WX    TMP DP  RH WIND       PRES   REMARKS
BLANDING       CLEAR     50  42  71 E3        30.19S
BRYCE CANYON   MOCLDY    34  31  88 CALM      30.15S
CEDAR CITY     PTCLDY    53  39  59 SW7       30.01S
DELTA          MOCLDY    58  38  46 S13       29.94S
HANKSVILLE       N/A     46  36  66 CALM      30.02S
MILFORD        PTCLDY    56  38  50 SW12      29.97R
MOAB/CYNLANDS  CLEAR     61  41  47 SE5       29.99S
PRICE          PTCLDY    46  35  65 CALM      30.05S
ST GEORGE      CLOUDY    64  39  39 SE9       29.94R
KANAB            N/A     46  36  66 NE3       30.08R

$$

REGIONAL REPORTS     COLORADO/ARIZONA

CITY           SKY/WX    TMP DP  RH WIND       PRES   REMARKS
CRAIG, CO      PTCLDY    35  32  88 SW3       30.11R
GRAND JUNCTION MOCLDY    56  37  49 E15       30.04S
RIFLE          MOCLDY    43  37  79 CALM      30.10R
MONTROSE       CLOUDY    51  40  65 CALM      30.13S
CORTEZ         PTCLDY    52  42  69 CALM      30.13F
PAGE, AZ       NOT AVBL
GRAND CANYON   CLEAR     31  28  89 CALM      30.14S
KINGMAN        PTCLDY    57  42  57 VRB6      29.96S
FLAGSTAFF      CLEAR     34  32  92 CALM      30.16S

$$

REGIONAL REPORTS    NEVADA/IDAHO/WYOMING

CITY           SKY/WX    TMP DP  RH WIND       PRES   REMARKS
LAS VEGAS, NV  PTCLDY    73  38  27 S18       29.81S
ELY            CLEAR     52  33  48 S12       29.99R
ELKO           MOCLDY    47  34  60 S13       30.00R
POCATELLO, ID  LGT RAIN  52  44  74 S14       29.87R
BURLEY         LGT RAIN  50  40  68 W20G30    29.88R
EVANSTON, WY   PTCLDY    50  36  58 S6        30.03S
ROCK SPRINGS   CLOUDY    50  35  56 SE3       30.03S
KEMMERER       MOCLDY    43  32  65 CALM      30.03F

$$


USA.gov is the U.S. government's official web portal to all federal, state and local government web resources and services.